sat.trackr.live / text

‹ back to catalog

STARLINK-32622

NORAD 61927 · 2024-207R

PAYLOAD ACTIVE UNKNOWN

§ Identity

Operator
Country
US
Launch date
2024-11-11
Launch site
AFETR
Launch vehicle
Mass (kg)
RCS (m²)

Purposes: comms

External: N2YO · Heavens-Above · Gunter

§ Orbital elements

Epoch: 2026-09-21T16:46:46.332768Z

Period
94.27 min
Inclination
43.0035°
Eccentricity
0.0001656
Mean motion
15.27595603 rev/d
Perigee alt
481.9 km
Apogee alt
484.1 km
Semi-major
6,861.1 km
B*
6.2907e-4
RAAN
254.4040°
Arg perigee
280.9229°
Mean anomaly
79.1436°
Rev number
10,470

§ Raw data

STARLINK-326221 61927U 24207R   26264.69914737  .00017097  00000+0  62907-3 0  99962 61927  43.0035 254.4040 0001656 280.9229  79.1436 15.27595603104706

JSON: /api/v1/satellites/61927 · /tle

For live sub-satellite position, see the globe view (requires WebGL).

§ Visibility from observer

Set your observer location to see the next 7 days of passes ≥ 10°. The values pass through the URL so the page stays shareable.

No JS? Fill the form by hand. The geolocation button needs JavaScript.